Location: Praha
(50.0830°N, 14.4670°E)
Time: 03:30:16
(UTC+02:00)

ISS - Pass Details

Date: 12 May 2024
Orbit: 409 x 414 km, 51.6° (Epoch: 23 May)

Event Time Altitude Azimuth Distance (km) Brightness Sun altitude
Exits shadow 03:42:22 23° 209° (SSW) 918 -2.6 -12.7°
Drops below altitude 10° 03:44:49 10° 161° (SSE) 1,470 -1.3 -12.5°
Sets 03:47:09 0° 147° (SSE) 2,326 -0.1 -12.2°
